Weather History for KUKI - December, 2013

Change the Weather History Date:

Wednesday, December 4, 2013

  Actual Average Record
Temperature  
Mean Temperature 38 °F 46 °F  
Max Temperature 52 °F 56 °F 77 °F (1958)
Min Temperature 24 °F 36 °F 22 °F (1936)
Degree Days  
Heating Degree Days 27 19  
Month to date heating degree days 76 74  
Since 1 July heating degree days 601 697  
Cooling Degree Days 0 0  
Month to date cooling degree days 0 0  
Year to date cooling degree days 974 835  
Moisture  
Dew Point 24 °F    
Average Humidity 61    
Maximum Humidity 88    
Minimum Humidity 33    
Precipitation  
Precipitation 0.00 in 0.16 in 2.22 in (1945)
Month to date precipitation T 0.60  
Year to date precipitation 7.01 31.00  
Since 1 July precipitation 1.43 7.62  
Snow  
Snow 0.00 in - - ()
Month to date snowfall 0.0  
Since 1 July snowfall 0.0  
Snow Depth 0.00 in    
Sea Level Pressure  
Sea Level Pressure 30.04 in    
Wind  
Wind Speed 1 mph (SW)    
Max Wind Speed 7 mph    
Max Gust Speed 9 mph    
Visibility 10 miles    
Events      
T = Trace of Precipitation, MM = Missing Value Source: NWS Daily Summary

Daily Weather History Graph

Daily Weather History Graph

Search for Another Location

Airport or City:

Trip Planner

Search our weather history database for the weather conditions in past years. The results will help you decide how hot, cold, wet, or windy it might be!

Date:

Astronomy

Dec. 04, 2013 Rise Set
Actual Time 7:16 AM PST 4:50 PM PST
Civil Twilight 6:46 AM PST 5:19 PM PST
Nautical Twilight 6:13 AM PST 5:53 PM PST
Astronomical Twilight 5:40 AM PST 6:25 PM PST
Moon 8:49 AM PST (12/4) 7:06 PM PST (12/4)
Length of Visible Light 10h 33m
Length of Day
9h 33m
Waxing Crescent, 5% of the Moon is Illuminated
Dec 4
Waxing Crescent
Dec 9
First Quarter
Dec 17
Full
Dec 25
Last Quarter
Jan 1
New

Hourly Weather History & Observations

Time (PST) Temp. Windchill Dew Point Humidity Pressure Visibility Wind Dir Wind Speed Gust Speed Precip Events Conditions
12:56 AM 33.1 °F - 27.0 °F 78% 29.99 in 10.0 mi Calm Calm - N/A   Clear
1:56 AM 28.9 °F - 25.0 °F 85% 30.00 in 10.0 mi Calm Calm - N/A   Clear
2:56 AM 28.9 °F - 25.0 °F 85% 30.01 in 10.0 mi Calm Calm - N/A   Clear
3:56 AM 26.1 °F - 23.0 °F 88% 30.01 in 10.0 mi Calm Calm - N/A   Clear
4:56 AM 28.0 °F - 24.1 °F 85% 30.02 in 9.0 mi Calm Calm - N/A   Clear
5:56 AM 26.1 °F - 21.9 °F 84% 30.03 in 10.0 mi Calm Calm - N/A   Clear
6:56 AM 24.1 °F - 21.0 °F 88% 30.05 in 10.0 mi Calm Calm - N/A   Clear
7:56 AM 26.1 °F - 23.0 °F 88% 30.06 in 10.0 mi Calm Calm - N/A   Clear
8:56 AM 30.9 °F - 26.1 °F 82% 30.08 in 10.0 mi Calm Calm - N/A   Clear
9:56 AM 35.1 °F - 28.0 °F 76% 30.08 in 10.0 mi Calm Calm - N/A   Clear
10:56 AM 41.0 °F - 28.0 °F 60% 30.06 in 10.0 mi Calm Calm - N/A   Clear
11:56 AM 46.0 °F - 26.1 °F 46% 30.04 in 10.0 mi Calm Calm - N/A   Clear
12:56 PM 48.0 °F - 24.1 °F 39% 30.01 in 10.0 mi Calm Calm - N/A   Clear
1:56 PM 50.0 °F - 23.0 °F 35% 30.00 in 10.0 mi SSE 3.5 mph - N/A   Clear
2:56 PM 51.1 °F - 24.1 °F 35% 30.00 in 10.0 mi Variable 4.6 mph - N/A   Clear
3:56 PM 46.0 °F 43.9 °F 24.1 °F 42% 30.00 in 10.0 mi West 4.6 mph - N/A   Clear
4:56 PM 43.0 °F 41.3 °F 24.1 °F 47% 30.01 in 10.0 mi NW 3.5 mph - N/A   Clear
5:56 PM 39.0 °F 35.7 °F 24.1 °F 55% 30.03 in 10.0 mi South 4.6 mph - N/A   Clear
6:56 PM 37.0 °F - 25.0 °F 62% 30.04 in 10.0 mi Calm Calm - N/A   Clear
7:56 PM 35.1 °F - 25.0 °F 67% 30.06 in 8.0 mi Calm Calm - N/A   Clear
8:56 PM 34.0 °F - 25.0 °F 70% 30.08 in 9.0 mi Calm Calm - N/A   Clear
9:56 PM 30.0 °F - 24.1 °F 79% 30.09 in 10.0 mi Calm Calm - N/A   Clear
10:56 PM 28.0 °F - 23.0 °F 81% 30.10 in 8.0 mi Calm Calm - N/A   Clear
11:56 PM 26.1 °F - 21.9 °F 84% 30.11 in 9.0 mi Calm Calm - N/A   Clear